Voltar ao catálogo

FENGYUN 1C DEB

AtivoPO
NORAD 31768·DEBRIS·🇨🇳 China

Lançado May 10, 1999 de Taiyuan Satellite Launch Center

Loading…

Próximas Passagens (próximas 24 horas)

TLE

AtualizadoSource: Space-Track

Época: Sep 14, 2026, 06:18 UTC

1 31768U 99025CFT 26257.26255287  .00015145  00000-0  17130-2 0  9999
2 31768  99.0366  10.1742 0023270 191.3931 200.8450 14.86383859  9447

Acompanhe FENGYUN 1C DEB em tempo real com AllMySat

Download on the App Store